| time (UTC) | temp F | wind direction | speed MPH | gust MPH | rain 1hr in | rain 24hr in | rain mn in | humidity % | barometer mb |
| 20260831114758 | 73 | 218 | 0.0 | 0.0 | 0.00 | 0.00 | 0.00 | 66 | 1011.8 |
| 20260831113257 | 74 | 218 | 0.0 | 0.0 | 0.00 | 0.00 | 0.00 | 66 | 1011.7 |
| 20260831110255 | 75 | 224 | 0.0 | 0.0 | 0.00 | 0.00 | 0.00 | 64 | 1011.6 |
| 20260831104755 | 75 | 215 | 0.0 | 0.0 | 0.00 | 0.00 | 0.00 | 63 | 1011.4 |
| 20260831103253 | 76 | 224 | 0.0 | 0.0 | 0.00 | 0.00 | 0.00 | 63 | 1011.3 |
| 20260831101752 | 77 | 156 | 0.0 | 0.0 | 0.00 | 0.00 | 0.00 | 61 | 1011.2 |
| 20260831100251 | 77 | 211 | 0.0 | 0.0 | 0.00 | 0.00 | 0.00 | 60 | 1011.1 |
| 20260831094750 | 78 | 203 | 0.0 | 0.0 | 0.00 | 0.00 | 0.00 | 59 | 1010.7 |
| 20260831091749 | 78 | 224 | 0.0 | 0.0 | 0.00 | 0.00 | 0.00 | 58 | 1010.6 |
| 20260831090248 | 78 | 204 | 0.0 | 0.0 | 0.00 | 0.00 | 0.00 | 58 | 1010.5 |
| 20260831084747 | 79 | 222 | 0.0 | 0.0 | 0.00 | 0.00 | 0.00 | 58 | 1010.4 |
| 20260831083246 | 79 | 218 | 0.0 | 0.0 | 0.00 | 0.00 | 0.00 | 57 | 1010.2 |
| 20260831081745 | 80 | 242 | 0.0 | 1.0 | 0.00 | 0.00 | 0.00 | 56 | 1010.1 |
| 20260831080244 | 80 | 203 | 0.0 | 1.0 | 0.00 | 0.00 | 0.00 | 55 | 1010.0 |
| 20260831074743 | 81 | 201 | 0.0 | 2.0 | 0.00 | 0.00 | 0.00 | 54 | 1010.0 |
| 20260831073242 | 81 | 140 | 0.0 | 1.0 | 0.00 | 0.00 | 0.00 | 54 | 1009.8 |
| 20260831071741 | 82 | 222 | 0.0 | 4.0 | 0.00 | 0.00 | 0.00 | 52 | 1010.0 |
| 20260831070240 | 83 | 145 | 4.0 | 4.0 | 0.00 | 0.00 | 0.00 | 52 | 1010.0 |
| 20260831064739 | 83 | 124 | 0.0 | 6.0 | 0.00 | 0.00 | 0.00 | 51 | 1010.0 |
| 20260831063238 | 84 | 224 | 0.0 | 4.0 | 0.00 | 0.00 | 0.00 | 50 | 1010.1 |
| 20260831061737 | 85 | 113 | 0.0 | 2.0 | 0.00 | 0.00 | 0.00 | 49 | 1010.1 |
| 20260831060236 | 86 | 264 | 0.0 | 6.0 | 0.00 | 0.00 | 0.00 | 48 | 1009.8 |
| 20260831053234 | 86 | 155 | 0.0 | 7.0 | 0.00 | 0.00 | 0.00 | 46 | 1009.1 |
| 20260831051733 | 87 | 169 | 0.0 | 6.0 | 0.00 | 0.00 | 0.00 | 46 | 1008.7 |
| 20260831050232 | 87 | 145 | 0.0 | 7.0 | 0.00 | 0.00 | 0.00 | 45 | 1008.6 |
| 20260831044731 | 87 | 166 | 1.0 | 6.0 | 0.00 | 0.00 | 0.00 | 45 | 1008.5 |
| 20260831043230 | 87 | 162 | 4.0 | 6.0 | 0.00 | 0.00 | 0.00 | 45 | 1008.5 |
| 20260831041729 | 88 | 181 | 0.0 | 6.0 | 0.00 | 0.00 | 0.00 | 44 | 1008.4 |
| 20260831040229 | 88 | 115 | 2.0 | 6.0 | 0.00 | 0.00 | 0.00 | 43 | 1008.4 |
| 20260831033227 | 89 | 188 | 2.0 | 6.0 | 0.00 | 0.00 | 0.00 | 42 | 1008.4 |
| 20260831031725 | 90 | 149 | 0.0 | 6.0 | 0.00 | 0.00 | 0.00 | 41 | 1008.4 |
| 20260831030225 | 90 | 195 | 0.0 | 6.0 | 0.00 | 0.00 | 0.00 | 40 | 1008.4 |
| 20260831023223 | 91 | 129 | 5.0 | 6.0 | 0.00 | 0.00 | 0.00 | 38 | 1008.1 |
| 20260831021722 | 92 | 85 | 3.0 | 6.0 | 0.00 | 0.00 | 0.00 | 37 | 1008.0 |
| 20260831014720 | 93 | 177 | 0.0 | 7.0 | 0.00 | 0.00 | 0.00 | 37 | 1007.4 |
| 20260831013219 | 94 | 149 | 0.0 | 6.0 | 0.00 | 0.00 | 0.00 | 37 | 1007.2 |
| 20260831011718 | 95 | 208 | 0.0 | 6.0 | 0.00 | 0.00 | 0.00 | 37 | 1007.1 |
| 20260831010217 | 96 | 241 | 0.0 | 12.0 | 0.00 | 0.00 | 0.00 | 36 | 1006.9 |
| 20260831003215 | 98 | 112 | 6.0 | 7.0 | 0.00 | 0.00 | 0.00 | 34 | 1006.8 |
| 20260831001714 | 99 | 218 | 0.0 | 5.0 | 0.00 | 0.00 | 0.00 | 33 | 1006.7 |
| 20260831000213 | 100 | 235 | 0.0 | 5.0 | 0.00 | 0.00 | 0.00 | 33 | 1006.8 |
| 20260830234712 | 101 | 215 | 4.0 | 8.0 | 0.00 | 0.00 | 0.00 | 32 | 1006.7 |
| 20260830233211 | 102 | 120 | 2.0 | 7.0 | 0.00 | 0.00 | 0.00 | 31 | 1006.6 |
| 20260830230209 | 104 | 215 | 0.0 | 6.0 | 0.00 | 0.00 | 0.00 | 30 | 1006.3 |
| 20260830221706 | 105 | 155 | 3.0 | 8.0 | 0.00 | 0.00 | 0.00 | 29 | 1006.2 |
| 20260830220205 | 105 | 142 | 0.0 | 6.0 | 0.00 | 0.00 | 0.00 | 29 | 1006.2 |
| 20260830214704 | 105 | 215 | 0.0 | 13.0 | 0.00 | 0.00 | 0.00 | 28 | 1006.2 |
| 20260830213204 | 105 | 212 | 1.0 | 12.0 | 0.00 | 0.00 | 0.00 | 28 | 1006.3 |
| 20260830211703 | 105 | 218 | 0.0 | 10.0 | 0.00 | 0.00 | 0.00 | 28 | 1006.5 |
| 20260830210201 | 106 | 238 | 0.0 | 5.0 | 0.00 | 0.00 | 0.00 | 27 | 1006.6 |
| 20260830204700 | 105 | 119 | 1.0 | 7.0 | 0.00 | 0.00 | 0.00 | 28 | 1006.8 |
| 20260830203159 | 105 | 218 | 3.0 | 12.0 | 0.00 | 0.00 | 0.00 | 26 | 1006.9 |
| 20260830201659 | 105 | 157 | 0.0 | 8.0 | 0.00 | 0.00 | 0.00 | 28 | 1007.0 |
| 20260830200158 | 105 | 205 | 0.0 | 10.0 | 0.00 | 0.00 | 0.00 | 30 | 1007.2 |
| 20260830194657 | 104 | 181 | 6.0 | 6.0 | 0.00 | 0.00 | 0.00 | 30 | 1007.4 |
| 20260830193156 | 104 | 222 | 3.0 | 9.0 | 0.00 | 0.00 | 0.00 | 31 | 1007.5 |
| 20260830190154 | 103 | 238 | 0.0 | 11.0 | 0.00 | 0.00 | 0.00 | 31 | 1007.6 |
| 20260830184653 | 102 | 210 | 2.0 | 15.0 | 0.00 | 0.00 | 0.00 | 33 | 1007.8 |
| 20260830183152 | 102 | 218 | 0.0 | 11.0 | 0.00 | 0.00 | 0.00 | 34 | 1008.1 |
| 20260830181651 | 101 | 253 | 4.0 | 17.0 | 0.00 | 0.00 | 0.00 | 35 | 1008.4 |
| 20260830174649 | 99 | 203 | 0.0 | 13.0 | 0.00 | 0.00 | 0.00 | 37 | 1008.6 |
| 20260830173148 | 99 | 174 | 6.0 | 15.0 | 0.00 | 0.00 | 0.00 | 37 | 1008.8 |
| 20260830171647 | 98 | 224 | 7.0 | 15.0 | 0.00 | 0.00 | 0.00 | 40 | 1009.0 |
| 20260830170146 | 97 | 203 | 6.0 | 15.0 | 0.00 | 0.00 | 0.00 | 40 | 1009.3 |
| 20260830163144 | 95 | 229 | 0.0 | 11.0 | 0.00 | 0.00 | 0.00 | 43 | 1009.6 |
| 20260830161643 | 93 | 218 | 0.0 | 13.0 | 0.00 | 0.00 | 0.00 | 44 | 1009.7 |
| 20260830160143 | 92 | 151 | 2.0 | 7.0 | 0.00 | 0.00 | 0.00 | 46 | 1009.7 |
| 20260830154641 | 91 | 107 | 5.0 | 12.0 | 0.00 | 0.00 | 0.00 | 47 | 1009.7 |
| 20260830153140 | 90 | 162 | 3.0 | 7.0 | 0.00 | 0.00 | 0.00 | 48 | 1009.8 |
| 20260830151639 | 88 | 229 | 0.0 | 9.0 | 0.00 | 0.00 | 0.00 | 50 | 1009.6 |
| 20260830150138 | 86 | 114 | 0.0 | 9.0 | 0.00 | 0.00 | 0.00 | 53 | 1009.8 |
| 20260830144637 | 84 | 132 | 5.0 | 9.0 | 0.00 | 0.00 | 0.00 | 54 | 1010.0 |
| 20260830143137 | 83 | 201 | 0.0 | 11.0 | 0.00 | 0.00 | 0.00 | 56 | 1010.1 |
| 20260830141636 | 82 | 160 | 1.0 | 7.0 | 0.00 | 0.00 | 0.00 | 57 | 1010.1 |
| 20260830140135 | 81 | 252 | 0.0 | 12.0 | 0.00 | 0.00 | 0.00 | 57 | 1010.3 |
| 20260830134634 | 80 | 118 | 2.0 | 10.0 | 0.00 | 0.00 | 0.00 | 59 | 1010.5 |
| 20260830133133 | 79 | 170 | 6.0 | 7.0 | 0.00 | 0.00 | 0.00 | 60 | 1010.6 |
| 20260830131632 | 78 | 197 | 0.0 | 8.0 | 0.00 | 0.00 | 0.00 | 61 | 1010.5 |
| 20260830130131 | 77 | 150 | 2.0 | 6.0 | 0.00 | 0.00 | 0.00 | 62 | 1010.5 |
| 20260830123129 | 76 | 167 | 0.0 | 6.0 | 0.00 | 0.00 | 0.00 | 63 | 1010.3 |
| 20260830120127 | 76 | 181 | 0.0 | 6.0 | 0.00 | 0.00 | 0.00 | 64 | 1010.1 |